Location: Darmstadt
(49.8706°N, 8.6494°E)
Time: 05:59:17
(UTC+01:00)

ERS-2 - Pass Details

Date: 31 October 2020
Orbit: 493 x 497 km, 98.6° (Epoch: 03 December)

Event Time Altitude Azimuth Distance (km) Brightness Sun altitude
Rises 17:28:41 0° 23° (NNE) 2,590 5.4 -4.6°
Reaches altitude 10° 17:30:57 10° 35° (NE) 1,702 4.4 -5.0°
Maximum altitude 17:34:12 29° 97° (E) 926 3.0 -5.5°
Drops below altitude 10° 17:37:25 10° 160° (SSE) 1,690 4.8 -6.0°
Sets 17:39:40 0° 172° (S) 2,567 5.8 -6.3°
